This is the latest recevied weather packets stored in our database for station/object NC4M. If no packets are shown the sender has not sent any weather packets the latest 10 day(s).
| Time | Temp. | Humidity | Pressure | Rain* | Wind** | Luminosity | Snow |
|---|---|---|---|---|---|---|---|
| 1777599281 | 13.89° C | 58% | 1015.3 hPa | 0 mm | - | 0 W/m² | - |
| 1777598976 | 13.89° C | 55% | 1015.6 hPa | 0 mm | - | 0 W/m² | - |
| 1777598674 | 14.44° C | 55% | 1015.5 hPa | 0 mm | - | 0 W/m² | - |
| 1777598369 | 14.44° C | 63% | 1015.5 hPa | 0 mm | - | 0 W/m² | - |
| 1777598068 | 14.44° C | 52% | 1015.5 hPa | 0 mm | - | 0 W/m² | - |
| 1777597767 | 14.44° C | 52% | 1015.4 hPa | 0 mm | - | 0 W/m² | - |
| 1777597462 | 15° C | 51% | 1015.5 hPa | 0 mm | - | 1 W/m² | - |
| 1777597158 | 15° C | 50% | 1015.3 hPa | 0 mm | - | 1 W/m² | - |
| 1777596855 | 15° C | 50% | 1015.4 hPa | 0 mm | - | 2 W/m² | - |
| 1777596550 | 15.56° C | 49% | 1015.3 hPa | 0 mm | - | 4 W/m² | - |
| 1777596248 | 15.56° C | 48% | 1015.3 hPa | 0 mm | - | 5 W/m² | - |
| 1777595945 | 15.56° C | 47% | 1015.4 hPa | 0 mm | - | 7 W/m² | - |
| 1777595645 | 15.56° C | 49% | 1015.3 hPa | 0 mm | - | 9 W/m² | - |
| 1777595341 | 16.11° C | 60% | 1015.4 hPa | 0 mm | - | 14 W/m² | - |
| 1777595037 | 16.11° C | 45% | 1015.4 hPa | 0 mm | - | 20 W/m² | - |
| 1777594734 | 16.11° C | 48% | 1015.2 hPa | 0 mm | - | 25 W/m² | - |
| 1777594431 | 16.11° C | 59% | 1015.3 hPa | 0 mm | - | 27 W/m² | - |
| 1777594126 | 16.67° C | 48% | 1015 hPa | 0 mm | - | 25 W/m² | - |
| 1777593823 | 16.67° C | 43% | 1015.2 hPa | 0 mm | - | 24 W/m² | - |
| 1777593519 | 16.67° C | 43% | 1015.4 hPa | 0 mm | - | 29 W/m² | - |
| 1777593219 | 16.67° C | 43% | 1015.1 hPa | 0 mm | - | 29 W/m² | - |
| 1777592918 | 17.22° C | 43% | 1015 hPa | 0 mm | - | 31 W/m² | - |
| 1777592614 | 17.22° C | 44% | 1015.1 hPa | 0 mm | - | 40 W/m² | - |
| 1777592310 | 17.22° C | 43% | 1015.3 hPa | 0 mm | - | 47 W/m² | - |
| 1777592006 | 17.22° C | 45% | 1015.3 hPa | 0 mm | - | 56 W/m² | - |
* Rain latest hour (hover to see other rain measurements)
** Current wind speed in m/s (hover to see current wind gust speed)